GOES 4 [-]

Last updated on Jan. 26, 2021, 7:58 a.m. UTC

1 11964U 80074A   21025.77721126 -.00000072  00000-0  00000-0 0  9993
2 11964  12.1414 320.5499 0034875  53.0275 127.8751  0.99227608107908
UTC
Height (km)
Latitude
Longitude
Inclination
Orbital Period
UTC large
Height (km)
Speed (km/s)
/
Latitude / Longitude
Inclination (degrees)
Orbital Period (minutes)
Azimuth
Elevation
Range (km)
Doppler Factor
iOS Compass Heading
iOS Angle

Next 30 passes for location: Hong Kong

Rise time Rise Azimuth (degrees) Set time Set Azimuth (degrees) Duration Max altitude (degrees)

No matching passes for this satellites